Regional Weather Roundup
Issued by NWS Midland/Odessa, TX

Skip options and go directly to product.
Home | Oldest Version | Next Version | Current Version | All | Text Only | Save Text | Print | Product List | Glossary On

Skip product version selection by date and time.   
734
ASUS44 KMAF 240310
RWRMAF
MIDLAND AREA WEATHER ROUNDUP
NATIONAL WEATHER SERVICE MIDLAND TX
900 PM CST FRI JAN 23 2015

...IN SOUTHWEST TEXAS AND SOUTHEAST NEW MEXICO...

CITY           SKY/WX    TMP DP  RH WIND       PRES   REMARKS
ALPINE         CLEAR     36  23  59 SW10      30.34R WCI  29
ANDREWS        FAIR      34  27  76 NW8       30.25S WCI  27
ARTESIA        CLEAR     28  28 100 W7        30.29R WCI  21
BIG SPRING     CLEAR     38  32  78 W6        30.26S WCI  34
CARLSBAD       CLEAR     35  27  72 W6        30.27R WCI  30
DRYDEN           N/A     44  32  62 W8        30.26S WCI  39
FORT STOCKTON  CLEAR     38  29  70 W9        30.27S WCI  31
GUAD PASS      NOT AVBL
HOBBS          CLEAR     32  27  80 W8        30.26R WCI  25
MARFA          CLEAR     30  21  69 W3        30.30R
MIDLAND AIRPK  CLEAR     38  30  72 W7        30.26R WCI  33
MIDLAND INTL   CLEAR     34  29  82 W7        30.25R WCI  28
ODESSA         CLEAR     35  28  75 W7        30.26R WCI  29
PECOS          CLEAR     35  30  82 W9        30.29R WCI  28
PRESIDIO       FAIR      40  34  76 CALM      30.32R
SEMINOLE       CLEAR     33  26  76 NW10      30.26R WCI  25
SNYDER         CLEAR    N/A N/A N/A W7        30.23S
WINK           CLEAR     36  26  67 NW9       30.27R WCI  29
$$
...OTHER STATIONS IN TEXAS...

CITY           SKY/WX    TMP DP  RH WIND       PRES   REMARKS
ABILENE        CLEAR     37  31  78 SW6       30.21F WCI  32
AMARILLO       PTCLDY    27  20  75 W10       30.19R WCI  17
AUSTIN         CLEAR     41  36  82 SW6       30.26R WCI  37
BROWNSVILLE    CLEAR     47  40  76 N7        30.32R
CORPUS CHRISTI CLEAR     41  38  89 NW7       30.32R WCI  36
DALLAS FTW     CLEAR     46  28  49 W9        30.18S
DEL RIO        CLEAR     41  34  76 CALM      30.29R
EL PASO        PTCLDY    35  28  75 NE5       30.29S WCI  31
HOUSTON INT    PTCLDY    40  37  89 SW6       30.23R WCI  36
LUBBOCK        CLEAR     29  24  82 W12       30.20S WCI  19
SAN ANGELO     CLEAR     36  32  85 SW7       30.24S WCI  30
SAN ANTONIO    PTCLDY    42  35  76 SW8       30.30R WCI  37
WACO           CLEAR     36  32  85 W7        30.23R WCI  30
WICHITA FALLS  NOT AVBL
$$
...OTHER LOCATIONS IN NEW MEXICO...

CITY           SKY/WX    TMP DP  RH WIND       PRES   REMARKS
ALAMAGORDO     PTCLDY    28  23  80 NE6       30.31S WCI  22
ALBUQUERQUE    PTCLDY    32  19  58 CALM      30.29R
CANNON AFB     CLEAR     27  18  68 NW13      30.23R WCI  16
CLOVIS         CLEAR     25  14  63 NW13      30.22S WCI  13
HOLLOMAN AFB   PTCLDY    30  24  76 E7        30.30R WCI  23
ROSWELL        PTCLDY    26  21  81 W3        30.27R
RUIDOSO        PTCLDY    32   9  37 W8        30.29R WCI  25
SANTA FE       CLEAR     21  16  81 N6        30.26R WCI  13
TRUTH OR CONSE CLEAR     36  18  48 SE3       30.29R
TUCUMCARI      CLEAR     29  19  66 NW12      30.24R WCI  19
$$

USA.gov is the U.S. government's official web portal to all federal, state and local government web resources and services.